Greeley, CO

10:51 AM MST on February 08, 2016 (GMT -0700)
Greeley-Weld County

Weather History for KGXY - July, 2013

Change the Weather History Date:

Tuesday, July 9, 2013

  Actual Average Record
Temperature  
Mean Temperature 76 °F -  
Max Temperature 96 °F 88 °F 103 °F (1976)
Min Temperature 55 °F 55 °F 48 °F (2010)
Cooling Degree Days 10    
Growing Degree Days 26 (Base 50)    
Moisture  
Dew Point 46 °F    
Average Humidity 43    
Maximum Humidity 77    
Minimum Humidity 12    
Precipitation  
Precipitation 0.00 in - - ()
Sea Level Pressure  
Sea Level Pressure 30.16 in    
Wind  
Wind Speed 4 mph (NNW)    
Max Wind Speed 17 mph    
Max Gust Speed 21 mph    
Visibility 10 miles    
Events      
Averages and records for this station are not official NWS values.
T = Trace of Precipitation, MM = Missing Value Source: NWS Daily Summary

Daily Weather History Graph

Daily Weather History Graph

Search for Another Location

Airport or City:

Trip Planner

Search our weather history database for the weather conditions in past years. The results will help you decide how hot, cold, wet, or windy it might be!

Date:

Astronomy

Jul. 09, 2013 Rise Set
Actual Time 5:36 AM MDT 8:30 PM MDT
Civil Twilight 5:04 AM MDT 9:02 PM MDT
Nautical Twilight 4:23 AM MDT 9:43 PM MDT
Astronomical Twilight 3:35 AM MDT 10:31 PM MDT
Moon 7:04 AM MDT (7/9) 9:08 PM MDT (7/9)
Length of Visible Light 15h 58m
Length of Day
14h 53m
New Moon, 2% of the Moon is Illuminated
Jul 9
New Moon
Jul 15
First Quarter
Jul 22
Full
Jul 29
Last Quarter
Aug 6
New

Hourly Weather History & Observations

Time (MDT) Temp. Heat Index Dew Point Humidity Pressure Visibility Wind Dir Wind Speed Gust Speed Precip Events Conditions
12:15 AM 64.4 °F - 53.6 °F 68% 30.13 in 10.0 mi WNW 6.9 mph - N/A   Clear
12:35 AM 64.4 °F - 51.8 °F 64% 30.13 in 10.0 mi Calm Calm - N/A   Clear
12:55 AM 62.6 °F - 51.8 °F 68% 30.14 in 10.0 mi Calm Calm - N/A   Clear
1:15 AM 62.6 °F - 51.8 °F 68% 30.13 in 10.0 mi NW 3.5 mph - N/A   Clear
1:35 AM 62.6 °F - 51.8 °F 68% 30.14 in 10.0 mi Calm Calm - N/A   Clear
1:55 AM 60.8 °F - 51.8 °F 72% 30.14 in 8.0 mi Calm Calm - N/A   Clear
2:15 AM 60.8 °F - 51.8 °F 72% 30.14 in 10.0 mi WSW 3.5 mph - N/A   Clear
2:35 AM 60.8 °F - 51.8 °F 72% 30.13 in 10.0 mi WNW 4.6 mph - N/A   Clear
2:55 AM 60.8 °F - 51.8 °F 72% 30.13 in 10.0 mi NW 6.9 mph - N/A   Clear
3:15 AM 59.0 °F - 50.0 °F 72% 30.13 in 10.0 mi NNW 6.9 mph - N/A   Clear
3:35 AM 60.8 °F - 48.2 °F 63% 30.13 in 10.0 mi WNW 3.5 mph - N/A   Clear
3:55 AM 59.0 °F - 50.0 °F 72% 30.14 in 10.0 mi WNW 6.9 mph - N/A   Clear
4:15 AM 57.2 °F - 48.2 °F 72% 30.13 in 10.0 mi NNW 5.8 mph - N/A   Clear
4:35 AM 57.2 °F - 48.2 °F 72% 30.14 in 10.0 mi Calm Calm - N/A   Clear
4:55 AM 57.2 °F - 48.2 °F 72% 30.13 in 10.0 mi WSW 3.5 mph - N/A   Clear
5:15 AM 57.2 °F - 48.2 °F 72% 30.15 in 10.0 mi Calm Calm - N/A   Clear
5:35 AM 55.4 °F - 48.2 °F 77% 30.15 in 10.0 mi South 3.5 mph - N/A   Clear
5:55 AM 55.4 °F - 46.4 °F 72% 30.16 in 7.0 mi SSE 3.5 mph - N/A   Clear
6:15 AM 55.4 °F - 46.4 °F 72% 30.16 in 10.0 mi Calm Calm - N/A   Clear
6:35 AM 59.0 °F - 50.0 °F 72% 30.16 in 10.0 mi Calm Calm - N/A   Clear
6:55 AM 60.8 °F - 53.6 °F 77% 30.17 in 10.0 mi Calm Calm - N/A   Clear
7:15 AM 64.4 °F - 53.6 °F 68% 30.18 in 10.0 mi NE 3.5 mph - N/A   Clear
7:35 AM 69.8 °F - 55.4 °F 60% 30.19 in 10.0 mi Calm Calm - N/A   Clear
7:55 AM 69.8 °F - 53.6 °F 56% 30.19 in 10.0 mi Calm Calm - N/A   Clear
8:15 AM 69.8 °F - 53.6 °F 56% 30.19 in 10.0 mi Calm Calm - N/A   Clear
8:35 AM 73.4 °F - 53.6 °F 50% 30.19 in 10.0 mi Calm Calm - N/A   Clear
8:55 AM 75.2 °F - 53.6 °F 47% 30.20 in 10.0 mi Calm Calm - N/A   Clear
9:15 AM 78.8 °F - 53.6 °F 42% 30.20 in 10.0 mi West 3.5 mph - N/A   Clear
9:35 AM 80.6 °F - 51.8 °F 37% 30.19 in 10.0 mi WNW 5.8 mph - N/A   Clear
9:55 AM 82.4 °F 81.4 °F 53.6 °F 37% 30.19 in 10.0 mi WNW 4.6 mph - N/A   Clear
10:15 AM 84.2 °F - 48.2 °F 29% 30.20 in 10.0 mi SW 4.6 mph - N/A   Clear
10:35 AM 87.8 °F - 46.4 °F 24% 30.20 in 10.0 mi Calm Calm - N/A   Clear
11:15 AM 89.6 °F - 42.8 °F 20% 30.19 in 10.0 mi Calm Calm - N/A   Clear
11:55 AM 91.4 °F - 39.2 °F 16% 30.17 in 10.0 mi West 3.5 mph - N/A   Clear
12:15 PM 93.2 °F - 41.0 °F 16% 30.17 in 10.0 mi WNW 8.1 mph - N/A   Clear
12:35 PM 95.0 °F - 41.0 °F 15% 30.16 in 10.0 mi WNW 6.9 mph - N/A   Clear
12:55 PM 95.0 °F - 37.4 °F 13% 30.16 in 10.0 mi WNW 8.1 mph - N/A   Clear
1:15 PM 96.8 °F - 35.6 °F 12% 30.15 in 10.0 mi NNE 9.2 mph - N/A   Clear
1:35 PM 93.2 °F - 35.6 °F 13% 30.15 in 10.0 mi NNE 3.5 mph - N/A   Clear
1:55 PM 96.8 °F - 39.2 °F 14% 30.14 in 10.0 mi NNW 10.4 mph - N/A   Clear
2:15 PM 95.0 °F - 35.6 °F 12% 30.14 in 10.0 mi WNW 6.9 mph - N/A   Clear
2:35 PM 96.8 °F - 37.4 °F 13% 30.13 in 10.0 mi NW 6.9 mph - N/A   Clear
2:55 PM 96.8 °F - 37.4 °F 13% 30.13 in 10.0 mi North 4.6 mph - N/A   Clear
3:55 PM 96.8 °F - 35.6 °F 12% 30.13 in 10.0 mi ENE 3.5 mph - N/A   Clear
4:35 PM 95.0 °F - 33.8 °F 12% 30.12 in 10.0 mi WNW 3.5 mph - N/A   Clear
4:55 PM 95.0 °F - 33.8 °F 12% 30.12 in 10.0 mi Calm Calm - N/A   Clear
5:15 PM 93.2 °F - 37.4 °F 14% 30.12 in 10.0 mi West 4.6 mph - N/A   Clear
5:55 PM 91.4 °F - 39.2 °F 16% 30.13 in 10.0 mi West 17.3 mph 20.7 mph N/A   Clear
6:15 PM 87.8 °F - 42.8 °F 21% 30.14 in 10.0 mi WNW 10.4 mph - N/A   Clear
6:35 PM 86.0 °F - 44.6 °F 23% 30.14 in 10.0 mi NW 8.1 mph - N/A   Partly Cloudy
6:55 PM 86.0 °F - 44.6 °F 23% 30.15 in 10.0 mi NNE 8.1 mph - N/A   Partly Cloudy
7:15 PM 87.8 °F - 39.2 °F 18% 30.14 in 10.0 mi NNE 11.5 mph 17.3 mph N/A   Scattered Clouds
7:35 PM 87.8 °F - 39.2 °F 18% 30.15 in 10.0 mi NNW 15.0 mph 20.7 mph N/A   Mostly Cloudy
7:55 PM 84.2 °F - 41.0 °F 22% 30.15 in 10.0 mi North 12.7 mph - N/A   Scattered Clouds
8:15 PM 82.4 °F - 41.0 °F 23% 30.15 in 10.0 mi North 10.4 mph - N/A   Clear
8:35 PM 77.0 °F - 42.8 °F 29% 30.16 in 10.0 mi ENE 4.6 mph - N/A   Clear
8:55 PM 75.2 °F - 42.8 °F 31% 30.16 in 10.0 mi NE 6.9 mph - N/A   Clear
9:15 PM 78.8 °F - 44.6 °F 30% 30.17 in 10.0 mi ENE 8.1 mph - N/A   Clear
9:35 PM 75.2 °F - 44.6 °F 34% 30.18 in 9.0 mi East 4.6 mph - N/A   Clear
9:55 PM 73.4 °F - 46.4 °F 38% 30.19 in 5.0 mi Calm Calm - N/A   Clear
10:15 PM 71.6 °F - 46.4 °F 41% 30.21 in 2.0 mi ESE 5.8 mph - N/A   Clear
10:35 PM 71.6 °F - 46.4 °F 41% 30.22 in 7.0 mi ESE 5.8 mph - N/A   Clear
10:55 PM 69.8 °F - 48.2 °F 46% 30.23 in 10.0 mi ESE 5.8 mph - N/A   Clear
11:15 PM 69.8 °F - 50.0 °F 49% 30.23 in 10.0 mi East 5.8 mph - N/A   Clear
11:35 PM 69.8 °F - 50.0 °F 49% 30.23 in 10.0 mi East 3.5 mph - N/A   Clear
11:55 PM 66.2 °F - 48.2 °F 52% 30.24 in 10.0 mi North 8.1 mph - N/A   Clear